Kuchera_Ratio
0.0 0.0 0.0 0.0 0.0 0.0 0.0 0.0 0.0 0.0 0.0 0.0 0.0 0.0 0.0 0.0 0.0 0.0 0.0 0.0 0.0 0.0
0.0 0.0 0.0 0.0 0.0 0.0 0.0 0.0 0.0 0.0 0.0 0.0 0.0 0.0 0.0 0.0 0.0 0.0 0.0 0.0 0.0 0.0
0.0 0.0 0.0 0.0 0.0 0.0 0.0 0.0 0.0 0.0 0.0 0.0 0.0 0.0 0.0 0.0 0.0 0.0 0.0 0.0 0.0 0.0
0.0 0.0 0.0 0.0 0.0 0.0 0.0 0.0 0.0 0.0 0.0 0.0 0.0 0.0 0.0 0.0 0.0 0.0 0.0 0.0 0.0 0.0
0.0 0.0 0.0 0.0 0.0 0.0 0.0 0.0 0.0 0.0 0.0 0.0 0.0 0.0 0.0 0.0 0.0 0.0 0.0 0.0 0.0 0.0
0.0 0.0 0.0 0.0 0.0 0.0 0.0 0.0 0.0 0.0 0.0 0.0 0.0 0.0 0.0 0.0 0.0 0.0 0.0 0.0 0.0 0.0
0.0 0.0 0.0 0.0 0.0 0.0 0.0 0.0 0.0 0.0 0.0 0.0 0.0 0.0 0.0 0.0 0.0 0.0 0.0 0.0 0.0 0.3
0.0 0.0 0.0 0.4 0.0 0.0 0.0 0.0 0.0 0.0 0.0 0.0 0.0 0.0 0.0 0.0 0.0 0.0 1.2 1.2 1.6 0.2
0.0 0.0 0.0 0.0 0.0 0.0 0.0 0.0 0.0 0.0 0.0 0.0 0.0 0.0 0.0 1.7 2.2 2.7 3.5 4.5 5.0 4.4
0.0 0.0 0.4 0.7 1.5 1.8 1.1 0.6 1.2 1.8 0.5 0.0 0.0 0.0 0.0 2.2 4.7 5.6 6.0 5.3 6.2 7.4
0.0 1.3 1.9 2.5 2.5 2.5 2.9 3.7 3.8 3.4 3.5 2.4 0.0 0.0 0.0 2.9 6.2 5.6 5.5 5.7 6.4 7.3
1.6 2.8 3.3 4.1 4.4 4.6 4.5 4.6 4.2 4.1 3.7 3.6 3.5 0.0 0.6 5.4 6.5 7.5 7.6 7.4 7.6 7.9
2.4 3.5 4.7 5.1 4.9 4.5 4.5 4.5 4.2 4.2 4.3 4.5 4.8 0.0 0.0 6.7 7.1 7.2 7.3 7.6 7.9 1.4
2.8 4.3 4.8 4.6 4.0 3.9 4.8 5.3 5.5 5.5 5.4 5.5 6.0 6.3 0.0 0.2 6.9 6.6 6.5 7.0 7.6 8.4